ROMMA est une association bénévole à but non lucratif. Votre soutien est indispensable : ADHERER à ROMMA ou FAIRE un DON

Val-d'Arly - (73, Savoie)

Beaufortain (2050 m)   Longitude: 06° 35' 21" E   Latitude: 45° 46' 53" N Station romma n°118
 

Détail journalier du     <<     >>

Température Humidité Vent Dir Rafale Dir. rafale Ensol.
Heure (°C) (%) (km/h) (km/h) (min)
01:00 -7.79314ESE19E0
02:00 -7.89214ESE19ESE0
03:00 -8.2927ESE18ESE0
04:00 -8.3928SE16ESE0
05:00 -8.5924ESE15S0
06:00 -8.59111SE21SE0
07:00 -8.6907SSE16SE0
08:00 -8.1887SE16ESE50
09:00 -6.9883E11ESE60
10:00 -4.1852NE6NE60
11:00 -6.7884ESE11ESE60
12:00 -6.4917E15E60
13:00 -5.8907E15E60
14:00 -5.1916ENE13ENE10
15:00
16:00
17:00 -4.3809E23E50
18:00 -4.68213E23E50
19:00 -5.18320E31E20
20:00 -5.48518ESE24ESE0
21:00 -5.78415ESE26ESE0
22:00 -4.8736SE19ESE0
23:00 -5.4783ENE11E0
minuit -5.3765SSO15SSO0

Graphique du 19-03-2019

 

Serveur OMMA